Location: Lac Echo
(45.9375°N, 75.4580°W)
Time: 01:45:47
(UTC-04:00)

Amateur Radio Satellites - All Passes

Search period start: 01 August 2015 01:15
Search period end: 02 August 2015 01:15
Location: Lac Echo, 45.9375°N, 75.4580°W

Satellite Date Start Highest point End Downlink Frequencies (MHz)
Time Altitude Azimuth
AIST 2 01 Aug 01:17:09 01:21:17 53° 121° (ESE) 01:25:28 435.215
ITUPSAT 1 01 Aug 01:18:26 01:22:53 39° 68° (ENE) 01:27:23 437.325
POPSAT HIP 1 01 Aug 01:22:33 01:26:06 25° 293° (WNW) 01:29:34 437.405
BEESAT 2 01 Aug 01:25:08 01:28:59 36° 315° (NW) 01:32:49 435.950
BUGSAT 1 01 Aug 01:28:24 01:32:02 31° 291° (WNW) 01:35:38 437.445
QB50P2 01 Aug 01:30:21 01:33:37 21° 295° (WNW) 01:36:48 145.880/145.840
YUBILEINY 01 Aug 01:33:41 01:42:22 70° 282° (WNW) 01:51:09 435.215
SPROUT 01 Aug 01:36:10 01:39:05 17° 270° (W) 01:41:53 437.525
KKS-1 01 Aug 01:37:52 01:39:23 12° 59° (ENE) 01:41:06 437.445
TISAT 1 01 Aug 01:49:04 01:52:06 19° 269° (W) 01:55:03 437.305
Cosmos 2504 01 Aug 01:49:41 01:54:26 20° 79° (ENE) 01:59:41 435.465 / 435.565
DUCHIFAT 1 01 Aug 01:56:16 01:58:23 13° 299° (WNW) 02:00:21 145.980
QB50P1 01 Aug 01:59:35 02:01:22 12° 300° (WNW) 02:02:59 145.935-145.965
NANOSAT C BR1 01 Aug 02:01:01 02:02:43 12° 300° (WNW) 02:04:14 145.865
RS-15 01 Aug 02:04:57 02:14:36 31° 350° (N) 02:24:36 29.354- 29.394
BEESAT 3 01 Aug 02:07:13 02:09:55 16° 326° (NW) 02:12:33 437.485
ITAMSAT 1 01 Aug 02:12:28 02:14:30 12° 86° (E) 02:16:48 435.822/435.867
BEESAT 01 Aug 02:14:29 02:19:15 62° 259° (W) 02:24:02 436.000
ISS 01 Aug 02:17:13 02:20:20 40° 16° (NNE) 02:23:27 145.825
O/OREOS (USA 219) 01 Aug 02:21:07 02:25:36 88° 293° (WNW) 02:30:09 437.305
Oscar 19 01 Aug 02:29:09 02:34:18 64° 101° (ESE) 02:39:28 437.125/150
JAS-2 01 Aug 02:30:22 02:34:04 14° 80° (E) 02:38:17 435.910
SWISSCUBE 01 Aug 02:35:27 02:39:54 37° 263° (W) 02:44:21 437.505
STARS 01 Aug 02:45:26 02:49:17 31° 68° (ENE) 02:53:11 437.465
AIST 2 01 Aug 02:56:37 03:00:08 24° 321° (NW) 03:03:36 435.215
ITUPSAT 1 01 Aug 02:56:50 03:00:54 26° 266° (W) 03:04:55 437.325
KKS-1 01 Aug 03:10:58 03:15:24 89° 254° (WSW) 03:19:52 437.445
Gurwin Techsat 1B 01 Aug 03:26:01 03:31:19 66° 101° (E) 03:36:37 435.225
YUBILEINY 01 Aug 03:35:49 03:41:17 17° 308° (NW) 03:46:22 435.215
Cosmos 2504 01 Aug 03:38:30 03:45:40 82° 280° (W) 03:53:25 435.465 / 435.565
ITAMSAT 1 01 Aug 03:49:37 03:54:51 89° 288° (WNW) 04:00:02 435.822/435.867
ISS 01 Aug 03:53:40 03:56:50 46° 215° (SW) 03:59:58 145.825
MOZHAYETS 4 01 Aug 04:00:02 04:04:19 38° 69° (ENE) 04:08:38
O/OREOS (USA 219) 01 Aug 04:03:27 04:05:48 14° 315° (NW) 04:08:02 437.305
HORYU 2 01 Aug 04:06:37 04:09:57 21° 92° (E) 04:13:24 437.375
AO-7 01 Aug 04:09:27 04:16:34 31° 93° (E) 04:23:48 29.400- 29.500
Oscar 19 01 Aug 04:09:29 04:13:14 20° 299° (WNW) 04:16:51 437.125/150
JAS-2 01 Aug 04:12:49 04:20:38 69° 101° (E) 04:28:24 435.910
RS-15 01 Aug 04:20:49 04:31:11 37° 24° (NNE) 04:42:06 29.354- 29.394
STARS 01 Aug 04:21:58 04:25:45 28° 266° (W) 04:29:29 437.465
GONETS M04 01 Aug 04:26:53 04:28:30 11° 72° (ENE) 04:30:47
DANDE 01 Aug 04:56:24 04:59:30 53° 100° (E) 05:02:11 436.750
Gurwin Techsat 1B 01 Aug 05:06:59 05:10:52 20° 299° (WNW) 05:14:36 435.225
CUSAT 1 01 Aug 05:18:12 05:20:47 32° 285° (WNW) 05:23:11 437.405
ITAMSAT 1 01 Aug 05:30:50 05:33:41 15° 303° (WNW) 05:36:19 435.822/435.867
Cosmos 2504 01 Aug 05:34:40 05:39:28 17° 305° (NW) 05:44:10 435.465 / 435.565
MOZHAYETS 4 01 Aug 05:37:46 05:41:40 25° 268° (W) 05:45:29
HORYU 2 01 Aug 05:42:32 05:46:50 45° 290° (WNW) 05:51:07 437.375
CUBESAT XI-V 01 Aug 05:53:23 05:57:54 49° 71° (ENE) 06:02:25 437.345
JAS-2 01 Aug 05:58:30 06:05:10 32° 299° (WNW) 06:11:45 435.910
Cubesat XI-IV 01 Aug 06:01:24 06:03:38 13° 85° (E) 06:06:09 437.490
AO-7 01 Aug 06:01:45 06:10:01 66° 294° (WNW) 06:18:11 29.400- 29.500
Cosmos 2499 01 Aug 06:13:43 06:15:02 11° 72° (ENE) 06:16:57 435.465 / 435.565
GONETS M04 01 Aug 06:15:10 06:23:36 58° 92° (E) 06:32:04
STRAND 1 01 Aug 06:19:56 06:24:29 34° 66° (ENE) 06:29:06 437.568
RS-15 01 Aug 06:33:53 06:45:39 82° 52° (NE) 06:57:54 29.354- 29.394
CUTE-I 01 Aug 06:55:25 07:00:22 39° 97° (E) 07:05:20 437.470
PRISM 01 Aug 07:02:02 07:06:10 63° 73° (ENE) 07:10:19 437.425
BEESAT 3 01 Aug 07:06:27 07:09:20 18° 36° (NE) 07:12:14 437.485
CUBESAT XI-V 01 Aug 07:32:08 07:35:38 20° 270° (W) 07:39:01 437.345
Cubesat XI-IV 01 Aug 07:39:13 07:44:36 89° 288° (WNW) 07:49:56 437.490
HO-68 01 Aug 07:52:29 07:52:59 10° 80° (E) 07:54:06 435.675
AO-7 01 Aug 07:56:01 08:01:26 19° 315° (NW) 08:06:32 29.400- 29.500
M-CUBED/EXP-1 PRIME 01 Aug 07:58:20 08:00:28 14° 53° (NE) 08:02:51 437.505
STRAND 1 01 Aug 07:58:58 08:03:40 35° 264° (W) 08:08:21 437.568
AIST 2 01 Aug 07:59:05 08:01:29 15° 31° (NNE) 08:03:56 435.215
Cosmos 2499 01 Aug 07:59:13 08:06:28 61° 92° (E) 08:14:23 435.465 / 435.565
BEESAT 2 01 Aug 08:03:47 08:07:40 39° 46° (NE) 08:11:29 435.950
GONETS M04 01 Aug 08:13:06 08:20:58 35° 294° (WNW) 08:28:42
AUBIESAT-1 01 Aug 08:26:30 08:29:40 22° 57° (ENE) 08:33:06 437.475
CUTE-I 01 Aug 08:35:41 08:40:23 32° 295° (WNW) 08:45:01 437.470
BRITE-PL 01 Aug 08:36:37 08:40:51 51° 100° (E) 08:45:23 437.365/2234.400
DOVE 4 01 Aug 08:36:44 08:40:10 21° 92° (E) 08:43:52 437.250
PRISM 01 Aug 08:40:00 08:42:05 13° 271° (W) 08:43:58 437.425
BEESAT 3 01 Aug 08:43:40 08:47:44 71° 237° (WSW) 08:51:42 437.485
RS-15 01 Aug 08:47:10 08:57:13 33° 254° (WSW) 09:07:09 29.354- 29.394
CINEMA 3 01 Aug 08:47:28 08:49:26 13° 87° (E) 08:51:41 145.822/145.860
GOMX 1 01 Aug 08:47:34 08:51:48 40° 98° (E) 08:56:19 467.674
COMPASS 1 01 Aug 08:51:32 08:53:36 14° 88° (E) 08:55:50 437.405
PCSat 01 Aug 08:55:26 08:59:58 29° 111° (ESE) 09:04:36 145.827
SO-50 01 Aug 09:03:05 09:06:44 22° 113° (ESE) 09:10:33 436.795
SEEDS 01 Aug 09:05:31 09:08:58 24° 93° (E) 09:12:28 437.485
CUTE 1.7 + AOD 2 01 Aug 09:08:08 09:11:58 31° 95° (E) 09:15:49 437.475
CANX-2 01 Aug 09:16:21 09:20:28 42° 97° (E) 09:24:33 2200.000
CUBEBUG 2 01 Aug 09:18:32 09:20:21 12° 86° (E) 09:22:26 437.445
Cubesat XI-IV 01 Aug 09:20:58 09:24:02 15° 303° (WNW) 09:26:53 437.490
M-CUBED/EXP-1 PRIME 01 Aug 09:30:31 09:34:36 81° 252° (WSW) 09:39:04 437.505
AAUSAT CUBESAT 2 01 Aug 09:31:43 09:35:27 30° 95° (E) 09:39:11 437.432
HO-68 01 Aug 09:35:21 09:42:28 61° 102° (ESE) 09:49:34 435.675
AIST 2 01 Aug 09:36:35 09:40:48 75° 52° (NE) 09:44:57 435.215
TIGRISAT 01 Aug 09:37:41 09:40:49 20° 64° (ENE) 09:44:08 435.000
ANTELSAT 01 Aug 09:39:19 09:42:36 22° 64° (ENE) 09:46:04 437.575/2403.000
BEESAT 2 01 Aug 09:42:11 09:45:33 24° 245° (WSW) 09:48:49 435.950
YUBILEINY 01 Aug 09:45:32 09:50:31 16° 52° (NE) 09:55:56 435.215
Cosmos 2499 01 Aug 09:53:44 10:00:18 30° 296° (WNW) 10:07:10 435.465 / 435.565
AUBIESAT-1 01 Aug 10:00:06 10:04:04 46° 257° (WSW) 10:08:20 437.475
ZACube-1 01 Aug 10:13:46 10:17:35 27° 93° (E) 10:21:30 437.345
DOVE 4 01 Aug 10:13:47 10:18:10 47° 288° (WNW) 10:22:46 437.250
BRITE-PL 01 Aug 10:16:06 10:19:09 18° 295° (WNW) 10:22:12 437.365/2234.400
CINEMA 3 01 Aug 10:22:33 10:27:13 79° 284° (WNW) 10:32:04 145.822/145.860
POLYITAN 1 01 Aug 10:25:02 10:28:24 24° 66° (ENE) 10:31:52 437.675
COMPASS 1 01 Aug 10:25:32 10:29:44 61° 286° (WNW) 10:33:52 437.405
GOMX 1 01 Aug 10:26:12 10:29:48 24° 293° (WNW) 10:33:31 467.674
UNISAT 6 01 Aug 10:29:33 10:33:52 65° 74° (ENE) 10:38:19 437.425
FUNcube-1 01 Aug 10:35:08 10:39:26 42° 98° (E) 10:43:47 145.935
UWE-3 01 Aug 10:37:21 10:41:53 58° 100° (E) 10:46:29 435.000/436.395/437.385
PCSat 01 Aug 10:37:55 10:43:10 50° 309° (NW) 10:48:28 145.827
SEEDS 01 Aug 10:40:57 10:44:51 34° 291° (WNW) 10:48:41 437.485
POPSAT HIP 1 01 Aug 10:41:35 10:45:22 34° 69° (ENE) 10:49:13 437.405
SO-50 01 Aug 10:42:12 10:46:55 57° 311° (NW) 10:51:49 436.795
CUTE 1.7 + AOD 2 01 Aug 10:44:08 10:47:49 27° 292° (WNW) 10:51:24 437.475
BUGSAT 1 01 Aug 10:45:48 10:49:03 24° 67° (ENE) 10:52:20 437.445
Oscar 11 01 Aug 10:47:53 10:52:18 89° 103° (ESE) 10:56:39 145.826/435.025
50 SAT 01 Aug 10:47:54 10:48:29 10° 86° (E) 10:49:18 437.505
QB50P2 01 Aug 10:49:04 10:53:01 42° 71° (ENE) 10:57:03 145.880/145.840
O/OREOS (USA 219) 01 Aug 10:49:37 10:53:46 33° 56° (NE) 10:57:57 437.305
UKube-1 01 Aug 10:50:25 10:52:59 16° 90° (E) 10:55:42 .
DELFI C3 01 Aug 10:52:18 10:56:22 70° 102° (ESE) 11:00:24 145.870
CANX-2 01 Aug 10:52:51 10:56:09 21° 295° (WNW) 10:59:19 2200.000
CUBEBUG 2 01 Aug 10:53:01 10:57:40 80° 283° (WNW) 11:02:23 437.445
AISAT 01 Aug 10:55:11 10:56:52 12° 87° (E) 10:58:48 437.250
HUMSAT D 01 Aug 10:59:49 11:03:42 32° 95° (E) 11:07:38 437.325/437.525
AAUSAT CUBESAT 2 01 Aug 11:07:23 11:10:59 27° 292° (WNW) 11:14:29 437.432
TIGRISAT 01 Aug 11:13:04 11:17:16 46° 261° (W) 11:21:35 435.000
DUCHIFAT 1 01 Aug 11:13:16 11:17:26 72° 75° (ENE) 11:21:37 145.980
ANTELSAT 01 Aug 11:14:58 11:19:08 43° 263° (W) 11:23:25 437.575/2403.000
QB50P1 01 Aug 11:16:37 11:20:48 82° 76° (ENE) 11:25:02 145.935-145.965
AIST 2 01 Aug 11:16:50 11:18:51 13° 250° (WSW) 11:20:39 435.215
DX 1 01 Aug 11:17:43 11:21:37 32° 96° (E) 11:25:33 434.975-435.025
NANOSAT C BR1 01 Aug 11:17:47 11:21:59 83° 76° (ENE) 11:26:12 145.865
HO-68 01 Aug 11:23:39 11:29:51 32° 301° (WNW) 11:35:57 435.675
VELOX 1 01 Aug 11:32:34 11:36:23 28° 95° (E) 11:40:13 145.980
YUBILEINY 01 Aug 11:40:41 11:49:29 68° 77° (ENE) 11:58:18 435.215
ESTCUBE 1 01 Aug 11:44:44 11:48:34 28° 94° (E) 11:52:27 437.505/2401.250
ZACube-1 01 Aug 11:49:52 11:54:00 35° 291° (WNW) 11:58:10 437.345
POLYITAN 1 01 Aug 12:00:20 12:04:11 34° 264° (W) 12:08:01 437.675
CINEMA 3 01 Aug 12:02:16 12:03:47 11° 300° (WNW) 12:05:05 145.822/145.860
AIST 1 01 Aug 12:06:30 12:10:35 41° 93° (E) 12:14:41
UNISAT 6 01 Aug 12:08:55 12:11:13 14° 273° (W) 12:13:21 437.425
Oscar 19 01 Aug 12:11:28 12:14:46 18° 60° (ENE) 12:18:15 437.125/150
FUNcube-1 01 Aug 12:11:54 12:15:32 24° 294° (WNW) 12:19:06 145.935
UWE-3 01 Aug 12:14:51 12:18:02 18° 296° (WNW) 12:21:06 435.000/436.395/437.385
Cosmos 2491 01 Aug 12:17:18 12:25:39 53° 90° (E) 12:34:03 435.465 / 435.565
POPSAT HIP 1 01 Aug 12:17:55 12:21:20 23° 267° (W) 12:24:41 437.405
50 SAT 01 Aug 12:19:38 12:23:38 72° 284° (WNW) 12:27:34 437.505
BUGSAT 1 01 Aug 12:20:45 12:24:24 31° 264° (W) 12:28:01 437.445
PCSat 01 Aug 12:25:10 12:27:59 14° 332° (NNW) 12:30:40 145.827
UKube-1 01 Aug 12:25:15 12:29:30 54° 288° (WNW) 12:33:42 .
SO-50 01 Aug 12:25:35 12:28:34 16° 334° (NNW) 12:31:29 436.795
QB50P2 01 Aug 12:26:05 12:29:09 19° 269° (W) 12:32:08 145.880/145.840
Oscar 11 01 Aug 12:26:17 12:27:52 11° 300° (WNW) 12:29:13 145.826/435.025
DELFI C3 01 Aug 12:29:04 12:30:56 13° 298° (WNW) 12:32:39 145.870
O/OREOS (USA 219) 01 Aug 12:29:08 12:33:10 30° 254° (WSW) 12:37:09 437.305
AISAT 01 Aug 12:29:37 12:34:03 73° 285° (WNW) 12:38:26 437.250
CUBEBUG 2 01 Aug 12:32:13 12:33:40 11° 301° (WNW) 12:34:55 437.445
HUMSAT D 01 Aug 12:35:40 12:39:21 27° 293° (WNW) 12:42:57 437.325/437.525
CUBEBUG 1 01 Aug 12:43:14 12:47:36 89° 271° (W) 12:51:56 437.445
DUCHIFAT 1 01 Aug 12:52:25 12:53:50 11° 273° (W) 12:55:00 145.980
DX 1 01 Aug 12:54:06 12:57:47 27° 294° (WNW) 13:01:24 434.975-435.025
VELOX 1 01 Aug 13:09:01 13:12:56 31° 292° (WNW) 13:16:48 145.980
Gurwin Techsat 1B 01 Aug 13:11:40 13:15:26 21° 61° (ENE) 13:19:21 435.225
SPROUT 01 Aug 13:18:26 13:22:44 69° 102° (ESE) 13:27:02 437.525
Cosmos 2504 01 Aug 13:21:01 13:28:47 41° 70° (ENE) 13:36:51 435.465 / 435.565
ESTCUBE 1 01 Aug 13:21:25 13:25:28 33° 292° (WNW) 13:29:27 437.505/2401.250
AO-7 01 Aug 13:23:29 13:27:40 15° 41° (NE) 13:32:10 29.400- 29.500
TISAT 1 01 Aug 13:29:26 13:33:35 55° 100° (E) 13:37:43 437.305
ITAMSAT 1 01 Aug 13:31:51 13:36:06 27° 64° (ENE) 13:40:26 435.822/435.867
YUBILEINY 01 Aug 13:38:24 13:45:43 29° 278° (W) 13:52:48 435.215
AIST 1 01 Aug 13:45:12 13:48:28 20° 292° (WNW) 13:51:38
Oscar 19 01 Aug 13:48:32 13:53:38 71° 258° (WSW) 13:58:47 437.125/150
CUSAT 1 01 Aug 14:07:15 14:09:17 14° 69° (ENE) 14:11:46 437.405
BEESAT 01 Aug 14:12:35 14:16:40 28° 94° (E) 14:20:46 436.000
Cosmos 2491 01 Aug 14:14:43 14:22:51 39° 292° (WNW) 14:30:52 435.465 / 435.565
CUBEBUG 1 01 Aug 14:22:01 14:23:20 11° 301° (WNW) 14:24:26 437.445
JAS-2 01 Aug 14:27:47 14:33:28 38° 63° (ENE) 14:39:54 435.910
SWISSCUBE 01 Aug 14:32:51 14:37:28 47° 99° (E) 14:42:03 437.505
Gurwin Techsat 1B 01 Aug 14:49:42 14:54:59 65° 258° (WSW) 15:00:18 435.225
ITUPSAT 1 01 Aug 14:53:53 14:58:41 67° 102° (ESE) 15:03:26 437.325
SPROUT 01 Aug 14:55:59 14:58:20 14° 298° (WNW) 15:00:31 437.525
KKS-1 01 Aug 15:00:55 15:03:23 15° 89° (E) 15:06:03 437.445
TISAT 1 01 Aug 15:06:16 15:08:58 16° 297° (WNW) 15:11:33 437.305
HORYU 2 01 Aug 15:07:08 15:10:49 26° 66° (ENE) 15:14:35 437.375
ITAMSAT 1 01 Aug 15:10:22 15:15:24 47° 261° (W) 15:20:26 435.822/435.867
AO-7 01 Aug 15:10:45 15:18:45 54° 63° (ENE) 15:26:50 29.400- 29.500
Cosmos 2504 01 Aug 15:13:11 15:21:13 51° 270° (W) 15:29:22 435.465 / 435.565
DANDE 01 Aug 15:30:21 15:33:53 52° 78° (ENE) 15:38:32 436.750
CUSAT 1 01 Aug 15:47:55 15:51:55 64° 261° (W) 15:57:14 437.405
BEESAT 01 Aug 15:50:10 15:54:35 37° 292° (WNW) 15:58:55 436.000
SO-50 01 Aug 15:51:38 15:54:01 13° 22° (NNE) 15:56:30 436.795
PCSat 01 Aug 15:58:01 16:00:10 12° 25° (NNE) 16:02:28 145.827
STARS 01 Aug 16:08:21 16:12:35 43° 98° (E) 16:16:49 437.465
SWISSCUBE 01 Aug 16:11:17 16:15:04 23° 296° (WNW) 16:18:43 437.505
JAS-2 01 Aug 16:12:36 16:18:28 44° 265° (W) 16:25:04 435.910
GONETS M04 01 Aug 16:22:19 16:29:55 33° 65° (ENE) 16:37:41
ITUPSAT 1 01 Aug 16:32:58 16:36:05 17° 299° (WNW) 16:39:04 437.325
KKS-1 01 Aug 16:36:04 16:40:29 61° 287° (WNW) 16:44:53 437.445
CUTE-I 01 Aug 16:43:11 16:45:38 14° 56° (NE) 16:48:20 437.470
HORYU 2 01 Aug 16:43:14 16:47:20 35° 263° (W) 16:51:27 437.375
AO-7 01 Aug 17:04:03 17:11:50 40° 263° (W) 17:19:33 29.400- 29.500
DANDE 01 Aug 17:15:03 17:16:57 13° 266° (W) 17:18:51 436.750
Cubesat XI-IV 01 Aug 17:24:50 17:29:21 29° 64° (ENE) 17:33:57 437.490
MOZHAYETS 4 01 Aug 17:29:21 17:33:58 65° 100° (E) 17:38:33
SO-50 01 Aug 17:31:08 17:35:54 43° 45° (NE) 17:40:34 436.795
PCSat 01 Aug 17:40:01 17:45:09 42° 48° (NE) 17:50:18 145.827
STARS 01 Aug 17:45:22 17:48:47 22° 296° (WNW) 17:52:07 437.465
Cosmos 2499 01 Aug 17:46:42 17:53:55 29° 63° (ENE) 18:01:30 435.465 / 435.565
GONETS M04 01 Aug 18:18:51 18:27:25 63° 267° (W) 18:35:58
CUTE-I 01 Aug 18:19:36 18:24:58 80° 74° (ENE) 18:30:21 437.470
HO-68 01 Aug 18:23:32 18:26:43 14° 47° (NE) 18:30:14 435.675
VERMONT LUNAR 01 Aug 18:52:09 18:54:20 17° 161° (SSE) 18:56:33 437.305
Cubesat XI-IV 01 Aug 19:04:10 19:09:18 44° 262° (W) 19:14:26 437.490
MOZHAYETS 4 01 Aug 19:07:46 19:10:44 17° 298° (WNW) 19:13:33
SO-50 01 Aug 19:11:56 19:16:20 32° 244° (WSW) 19:20:35 436.795
PCSat 01 Aug 19:23:36 19:28:31 35° 248° (WSW) 19:33:21 145.827
CUBESAT XI-V 01 Aug 19:24:41 19:29:20 88° 108° (ESE) 19:33:56 437.345
Cosmos 2499 01 Aug 19:39:17 19:48:00 75° 265° (W) 19:56:50 435.465 / 435.565
DOVE 4 01 Aug 19:45:26 19:48:45 24° 67° (ENE) 19:52:11 437.250
COMPASS 1 01 Aug 19:45:28 19:47:39 14° 62° (ENE) 19:49:59 437.405
BRITE-PL 01 Aug 19:50:18 19:54:40 76° 75° (ENE) 19:58:51 437.365/2234.400
CINEMA 3 01 Aug 19:52:19 19:54:28 14° 61° (ENE) 19:56:47 145.822/145.860
GOMX 1 01 Aug 19:58:40 20:02:46 54° 73° (ENE) 20:06:51 467.674
SEEDS 01 Aug 20:00:00 20:03:23 24° 67° (ENE) 20:06:51 437.485
CUTE-I 01 Aug 20:02:37 20:05:46 15° 273° (W) 20:08:41 437.470
CUTE 1.7 + AOD 2 01 Aug 20:03:18 20:07:03 31° 69° (ENE) 20:10:53 437.475
HO-68 01 Aug 20:06:11 20:13:07 58° 67° (ENE) 20:20:07 435.675
STRAND 1 01 Aug 20:06:20 20:11:27 66° 102° (ESE) 20:16:30 437.568
CANX-2 01 Aug 20:11:28 20:15:28 41° 71° (ENE) 20:19:33 2200.000
Oscar 11 01 Aug 20:12:08 20:13:31 12° 60° (ENE) 20:15:05 145.826/435.025
PRISM 01 Aug 20:17:05 20:21:13 73° 103° (ESE) 20:25:18 437.425
GONETS M04 01 Aug 20:19:17 20:22:37 12° 287° (WNW) 20:25:19
CUBEBUG 2 01 Aug 20:19:47 20:21:46 13° 61° (ENE) 20:23:57 437.445
AAUSAT CUBESAT 2 01 Aug 20:24:47 20:28:23 29° 68° (ENE) 20:32:04 437.432
VERMONT LUNAR 01 Aug 20:27:44 20:30:34 30° 177° (S) 20:33:25 437.305
ISS 01 Aug 20:35:50 20:37:31 14° 135° (SE) 20:39:18 145.825
PHONESAT 2.4 01 Aug 20:50:53 20:53:35 21° 161° (SSE) 20:56:16 2401.200-2431.200
RS-15 01 Aug 21:01:26 21:11:02 39° 109° (ESE) 21:21:07 29.354- 29.394
CUBESAT XI-V 01 Aug 21:04:05 21:06:09 13° 301° (WNW) 21:08:00 437.345
ZACube-1 01 Aug 21:12:23 21:15:56 27° 67° (ENE) 21:19:36 437.345
COMPASS 1 01 Aug 21:18:38 21:22:50 66° 259° (W) 21:27:05 437.405
DOVE 4 01 Aug 21:22:44 21:26:28 31° 265° (W) 21:30:11 437.250
CINEMA 3 01 Aug 21:27:05 21:31:12 63° 259° (W) 21:35:25 145.822/145.860
BRITE-PL 01 Aug 21:33:00 21:33:49 10° 273° (W) 21:34:23 437.365/2234.400
FUNcube-1 01 Aug 21:33:17 21:37:15 42° 71° (ENE) 21:41:21 145.935
Cosmos 2499 01 Aug 21:34:41 21:39:54 17° 284° (WNW) 21:44:41 435.465 / 435.565
SEEDS 01 Aug 21:35:05 21:39:01 35° 264° (W) 21:42:57 437.485
UWE-3 01 Aug 21:36:55 21:41:03 61° 73° (ENE) 21:45:19 435.000/436.395/437.385
GOMX 1 01 Aug 21:39:00 21:41:21 14° 271° (W) 21:43:32 467.674
CUTE 1.7 + AOD 2 01 Aug 21:39:18 21:42:59 27° 266° (W) 21:46:38 437.475
AUBIESAT-1 01 Aug 21:39:54 21:41:38 12° 91° (E) 21:43:37 437.475
DELFI C3 01 Aug 21:41:25 21:45:24 58° 74° (ENE) 21:49:26 145.870
Oscar 11 01 Aug 21:44:43 21:49:05 88° 264° (W) 21:53:28 145.826/435.025
STRAND 1 01 Aug 21:46:35 21:50:12 19° 299° (WNW) 21:53:39 437.568
UKube-1 01 Aug 21:47:33 21:50:37 20° 64° (ENE) 21:53:48 .
CANX-2 01 Aug 21:48:21 21:51:37 20° 269° (W) 21:54:47 2200.000
CUBEBUG 2 01 Aug 21:53:45 21:57:55 71° 258° (WSW) 22:02:15 437.445
HUMSAT D 01 Aug 21:53:57 21:57:35 31° 69° (ENE) 22:01:20 437.325/437.525
PRISM 01 Aug 21:54:17 21:56:08 13° 300° (WNW) 21:57:49 437.425
HO-68 01 Aug 21:55:01 22:01:16 31° 267° (W) 22:07:26 435.675
AISAT 01 Aug 21:55:06 21:57:46 17° 62° (ENE) 22:00:36 437.250
AAUSAT CUBESAT 2 01 Aug 22:00:17 22:03:58 28° 266° (W) 22:07:36 437.432
VERMONT LUNAR 01 Aug 22:04:16 22:06:52 23° 194° (SSW) 22:09:26 437.305
CUBEBUG 1 01 Aug 22:08:14 22:10:02 13° 60° (ENE) 22:12:01 437.445
ISS 01 Aug 22:10:17 22:13:32 85° 151° (SSE) 22:16:49 145.825
AIST 1 01 Aug 22:12:10 22:14:24 14° 65° (ENE) 22:16:46
DX 1 01 Aug 22:15:32 22:19:33 39° 69° (ENE) 22:23:37 434.975-435.025
UNISAT 6 01 Aug 22:20:42 22:22:38 13° 86° (E) 22:24:48 437.425
Cosmos 2491 01 Aug 22:24:34 22:31:53 30° 63° (ENE) 22:39:23 435.465 / 435.565
PHONESAT 2.4 01 Aug 22:27:51 22:31:03 33° 178° (S) 22:34:16 2401.200-2431.200
VELOX 1 01 Aug 22:32:25 22:36:23 35° 69° (ENE) 22:40:25 145.980
BEESAT 3 01 Aug 22:41:13 22:42:12 11° 110° (ESE) 22:43:23 437.485
M-CUBED/EXP-1 PRIME 01 Aug 22:43:30 22:48:16 58° 105° (ESE) 22:52:55 437.505
ESTCUBE 1 01 Aug 22:46:34 22:50:39 35° 69° (ENE) 22:54:48 437.505/2401.250
ZACube-1 01 Aug 22:48:27 22:52:13 31° 265° (W) 22:56:02 437.345
YUBILEINY 01 Aug 22:53:23 22:57:27 15° 74° (ENE) 23:02:04 435.215
QB50P1 01 Aug 23:01:27 23:02:40 11° 87° (E) 23:04:08 145.935-145.965
TIGRISAT 01 Aug 23:02:06 23:06:15 31° 95° (E) 23:10:26 435.000
NANOSAT C BR1 01 Aug 23:02:23 23:03:37 11° 87° (E) 23:05:06 145.865
ANTELSAT 01 Aug 23:04:08 23:08:23 33° 95° (E) 23:12:40 437.575/2403.000
50 SAT 01 Aug 23:05:20 23:09:14 87° 77° (ENE) 23:13:12 437.505
FUNcube-1 01 Aug 23:10:42 23:13:50 19° 270° (W) 23:16:54 145.935
RS-15 01 Aug 23:11:52 23:22:49 69° 313° (NW) 23:34:15 29.354- 29.394
AUBIESAT-1 01 Aug 23:12:15 23:17:03 88° 290° (WNW) 23:21:43 437.475
UWE-3 01 Aug 23:15:53 23:18:07 13° 273° (W) 23:20:10 435.000/436.395/437.385
DELFI C3 01 Aug 23:18:48 23:20:55 13° 272° (W) 23:22:50 145.870
UKube-1 01 Aug 23:22:18 23:26:28 46° 261° (W) 23:30:39 .
AISAT 01 Aug 23:29:36 23:33:57 60° 260° (W) 23:38:19 437.250
HUMSAT D 01 Aug 23:29:50 23:33:21 26° 266° (W) 23:36:53 437.325/437.525
BEESAT 2 01 Aug 23:37:11 23:40:49 31° 117° (ESE) 23:44:31 435.950
CUBEBUG 1 01 Aug 23:41:29 23:45:51 80° 257° (WSW) 23:50:13 437.445
POLYITAN 1 01 Aug 23:42:55 23:46:44 31° 96° (E) 23:50:36 437.675
ISS 01 Aug 23:47:15 23:50:14 32° 350° (N) 23:53:14 145.825
AIST 1 01 Aug 23:48:19 23:52:33 59° 264° (W) 23:56:43
DX 1 01 Aug 23:52:32 23:55:59 22° 267° (W) 23:59:19 434.975-435.025
UNISAT 6 01 Aug 23:55:20 00:00:03 79° 285° (WNW) 00:04:46 437.425
POPSAT HIP 1 01 Aug 23:59:30 00:03:36 45° 98° (E) 00:07:44 437.405
BUGSAT 1 02 Aug 00:00:06 00:03:37 28° 95° (E) 00:07:13 437.445
PHONESAT 2.4 02 Aug 00:05:39 00:08:35 25° 195° (SSW) 00:11:29 2401.200-2431.200
QB50P2 02 Aug 00:07:18 00:11:31 58° 100° (E) 00:15:45 145.880/145.840
SWISSCUBE 02 Aug 00:08:27 00:09:17 11° 56° (NE) 00:10:22 437.505
VELOX 1 02 Aug 00:09:19 00:13:01 25° 266° (W) 00:16:39 145.980
SPROUT 02 Aug 00:14:42 00:18:57 71° 74° (ENE) 00:23:13 437.525
BEESAT 3 02 Aug 00:15:28 00:19:33 85° 306° (NW) 00:23:41 437.485
M-CUBED/EXP-1 PRIME 02 Aug 00:18:58 00:22:39 22° 303° (WNW) 00:26:12 437.505
Cosmos 2491 02 Aug 00:20:58 00:29:37 69° 266° (W) 00:38:13 435.465 / 435.565
TISAT 1 02 Aug 00:23:41 00:27:46 56° 73° (ENE) 00:31:53 437.305
ESTCUBE 1 02 Aug 00:23:44 00:27:36 27° 266° (W) 00:31:25 437.505/2401.250
ITUPSAT 1 02 Aug 00:27:55 00:30:27 15° 59° (ENE) 00:33:09 437.325
DUCHIFAT 1 02 Aug 00:31:00 00:35:16 85° 285° (WNW) 00:39:31 145.980
QB50P1 02 Aug 00:34:52 00:39:08 75° 285° (WNW) 00:43:23 145.935-145.965
NANOSAT C BR1 02 Aug 00:35:47 00:40:02 74° 285° (WNW) 00:44:17 145.865
TIGRISAT 02 Aug 00:38:46 00:42:59 33° 292° (WNW) 00:47:08 435.000
ANTELSAT 02 Aug 00:40:58 00:45:05 30° 293° (WNW) 00:49:10 437.575/2403.000
YUBILEINY 02 Aug 00:44:11 00:52:48 72° 94° (E) 01:01:33 435.215
AUBIESAT-1 02 Aug 00:48:28 00:51:04 14° 307° (NW) 00:53:30 437.475
O/OREOS (USA 219) 02 Aug 01:05:09 01:08:33 22° 103° (ESE) 01:12:06 437.305
